Weather History for Thompson, MB

Change the Weather History Date:

Wednesday, December 12, 2012

  Actual Average Record
Temperature  
Mean Temperature -30 °F -  
Max Temperature -18 °F 3 °F 33 °F (1997)
Min Temperature -43 °F -12 °F -43 °F (2012)
Degree Days  
Heating Degree Days 96    
Moisture  
Dew Point -40 °F    
Average Humidity 68    
Maximum Humidity 75    
Minimum Humidity 45    
Precipitation  
Precipitation 0.00 in 0.03 in - ()
Sea Level Pressure  
Sea Level Pressure 30.28 in    
Wind  
Wind Speed 2 mph ()    
Max Wind Speed 5 mph    
Max Gust Speed -    
Visibility 15.0 miles    
Events Snow    
Averages and records for this station are not official NWS values.
T = Trace of Precipitation, MM = Missing Value Source: Averaged Metar Reports

Daily Weather History Graph

Daily Weather History Graph

Search for Another Location

Airport:

Trip Planner

Search our weather history database for the weather conditions in past years. The results will help you decide how hot, cold, wet, or windy it might be!

Date:

Astronomy

Dec. 12, 2012 Rise Set
Actual Time 8:53 AM CST 3:57 PM CST
Civil Twilight 8:06 AM CST 4:44 PM CST
Nautical Twilight 7:17 AM CST 5:33 PM CST
Astronomical Twilight 6:32 AM CST 6:18 PM CST
Moon 7:54 AM CST (12/12) 3:39 PM CST (12/12)
Length of Visible Light 8h 38m
Length of Day
7h 04m
Waning Crescent, 1% of the Moon is Illuminated
Dec 12
Waning Crescent
Dec 13
New
Dec 19
First Quarter
Dec 28
Full
Jan 4
Last Quarter

Hourly Weather History & Observations

Time (CST) Temp. Windchill Dew Point Humidity Pressure Visibility Wind Dir Wind Speed Gust Speed Precip Events Conditions
12:00 AM -36 °F - -42 °F 58% 30.16 in 15 mi NW 4.6 mph - - Snow Snow
12:00 AM -36.4 °F -49.4 °F -41.8 °F 75% 30.16 in 15.0 mi NW 3.5 mph - N/A   Clear
1:00 AM -36.4 °F -52.4 °F -41.8 °F 75% 30.17 in 15.0 mi NW 4.6 mph - N/A   Clear
2:00 AM -36.4 °F - -43.6 °F 67% 30.19 in 15.0 mi WNW 2.3 mph - N/A   Clear
3:00 AM -38.2 °F - -43.6 °F 74% 30.20 in 15.0 mi Calm Calm - N/A   Partly Cloudy
4:00 AM -41.8 °F - -47.2 °F 74% 30.21 in 15.0 mi Calm Calm - N/A   Partly Cloudy
5:00 AM -40.0 °F - -47.2 °F 67% 30.21 in 15.0 mi NW 2.3 mph - N/A   Partly Cloudy
6:00 AM -39 °F - -45 °F 53% 30.24 in 15 mi WNW 2.3 mph - - Snow Snow
6:00 AM -38.2 °F -51.5 °F -45.4 °F 67% 30.24 in 15.0 mi WNW 3.5 mph - N/A   Clear
7:00 AM -38.2 °F -51.5 °F -43.6 °F 74% 30.25 in 15.0 mi NNW 3.5 mph - N/A   Clear
8:00 AM -38.2 °F -51.5 °F -43.6 °F 74% 30.27 in 15.0 mi WNW 3.5 mph - N/A   Partly Cloudy
9:00 AM -43.6 °F - -49.0 °F 74% 30.29 in 15.0 mi Calm Calm - N/A   Partly Cloudy
10:00 AM -36.4 °F -52.4 °F -41.8 °F 75% 30.29 in 15.0 mi NNW 4.6 mph - N/A   Partly Cloudy
11:00 AM -31.0 °F -46.1 °F -38.2 °F 68% 30.31 in 15.0 mi WSW 4.6 mph - N/A   Partly Cloudy
12:00 PM -27 °F - -34 °F 53% 30.31 in 15 mi West 2.3 mph - - Snow Snow
12:00 PM -27.4 °F - -34.6 °F 69% 30.31 in 15.0 mi West 2.3 mph - N/A   Partly Cloudy
1:00 PM -22.0 °F - -29.2 °F 69% 30.31 in 15.0 mi Calm Calm - N/A   Partly Cloudy
2:00 PM -20.2 °F - -27.4 °F 69% 30.32 in 15.0 mi Calm Calm - N/A   Scattered Clouds
3:00 PM -20.2 °F - -27.4 °F 69% 30.32 in 15.0 mi North 2.3 mph - N/A   Scattered Clouds
4:00 PM -23.8 °F - -31.0 °F 69% 30.32 in 15.0 mi North 2.3 mph - N/A   Partly Cloudy
6:00 PM -31 °F - -39 °F 45% 30.35 in 15 mi Calm Calm - - Snow Snow
6:00 PM -31.0 °F - -40.0 °F 62% 30.35 in 15.0 mi North 2.3 mph - N/A   Partly Cloudy
7:00 PM -32.8 °F - -40.0 °F 68% 30.35 in 15.0 mi NNW 2.3 mph - N/A   Partly Cloudy
8:00 PM -32.8 °F - -41.8 °F 62% 30.36 in 15.0 mi North 2.3 mph - N/A   Clear
9:00 PM -36.4 °F - -43.6 °F 67% 30.36 in 15.0 mi Calm Calm - N/A   Clear
10:00 PM -38.2 °F - -43.6 °F 74% 30.38 in 15.0 mi Calm Calm - N/A   Clear
11:00 PM -38.2 °F - -43.6 °F 74% 30.38 in 15.0 mi NW 2.3 mph - N/A   Clear